Content
SEND FEEDBACK

Daily
Averages
Monthly
Summary
French Polynesia

PAPEETE, FRENCH POLYNESIA


Home > Oceania > French Polynesia
Elevation: 7 feet     Latitude: 17 33S     Longitude: 149 36W

WEATHER
 
SELECT A DAY
Number of Records: 213,053;   Date Range: 6/30/96 - 9/29/14
 
SHARE

PRINT THIS DATA

[ ← Previous Day ]
WEATHER ALMANAC - SEPTEMBER 2, 2014
[ Next Day → ]
[ °C ]   °F
Weather ElementAverageHighLow
Temperature78.7 °F84.2 °F (2:30 pm)73.4 °F (2:30 am)
Dewpoint68 °F70 °F (5:00 pm)64.4 °F (9:00 am)
Humidity69 %83 % (2:30 am)52 % (8:00 am)
Barometer29.94 in30.01 in (12:00 am)29.89 in (3:30 pm)
Wind Speed4.6 mph10.4 mph (3:00 pm)
Weather ElementAverage
Visibility7.5 mi
Wind DirectionSSE (173.9 °)

Weather ElementTotal
Precipitation---
Cooling Degree Days13.8 (Base 65)
Growing Degree Days28.8 (Base 50)
Averaged from 56 records on September 2, 2014
WEATHER CONDITIONS BREAKOUT
WIND DIRECTION BREAKOUT
WEATHER BY HOUR - SEPTEMBER 2, 2014
[ °C ]   °F
Local TimeTemperatureDewpointHumidityBarometerVisibilityWind DirectionWind SpeedGust SpeedPrecipitationEventsConditions
12:00 AM73.4 °F66.2 °F78 %29.95 in6.2 miSouth (180°)6.9 mphScattered Clouds
12:30 AM73.4 °F66.2 °F78 %29.92 in6.2 miSouth (170°)4.6 mphScattered Clouds
1:00 AM73.4 °F66.2 °F78 %29.92 in6.2 miSE (140°)4.6 mphScattered Clouds
1:30 AM73.4 °F66.2 °F78 %29.92 in6.2 miSSE (160°)3.5 mphScattered Clouds
2:00 AM74.0 °F67.0 °F73 %29.94 in12.0 miSouth (180°)2.3 mphMostly Cloudy
2:00 AM73.4 °F68.0 °F83 %29.92 in6.2 miVariable2.3 mphMostly Cloudy
2:30 AM73.4 °F68.0 °F83 %29.92 in6.2 miSouth (170°)5.8 mphMostly Cloudy
3:00 AM75.2 °F66.2 °F73 %29.92 in6.2 miSouth (190°)4.6 mphMostly Cloudy
3:30 AM75.2 °F64.4 °F69 %29.92 in6.2 miVariable2.3 mphOvercast
4:00 AM75.2 °F66.2 °F73 %29.89 in6.2 miEast (80°)3.5 mphOvercast
4:30 AM75.2 °F66.2 °F73 %29.92 in6.2 miSSW (210°)3.5 mphMostly Cloudy
5:00 AM75.0 °F67.0 °F70 %29.92 in37.0 miEast (100°)2.3 mphClear
5:00 AM75.2 °F68.0 °F78 %29.92 in6.2 miVariable2.3 mphMostly Cloudy
5:30 AM73.4 °F68.0 °F83 %29.92 in6.2 miSouth (180°)2.3 mphMostly Cloudy
6:00 AM73.4 °F68.0 °F83 %29.95 in6.2 miCalmScattered Clouds
6:30 AM73.4 °F68.0 °F83 %29.95 in6.2 miVariable3.5 mphScattered Clouds
7:00 AM75.2 °F68.0 °F78 %29.95 in6.2 miCalmPartly Cloudy
7:30 AM77.0 °F68.0 °F74 %29.98 in6.2 miCalmPartly Cloudy
8:00 AM79.0 °F68.0 °F60 %29.99 in16.0 miNNE (30°)2.3 mphPartly Cloudy
8:00 AM78.8 °F68.0 °F69 %29.98 in6.2 miVariable2.3 mphPartly Cloudy
8:30 AM80.6 °F68.0 °F65 %29.98 in6.2 miNW (310°)1.2 mphPartly Cloudy
9:00 AM80.6 °F68.0 °F65 %29.98 in6.2 miWSW (240°)4.6 mphPartly Cloudy
9:30 AM80.6 °F68.0 °F65 %30.01 in6.2 miWest (260°)6.9 mphMostly Cloudy
10:00 AM82.4 °F68.0 °F62 %29.98 in6.2 miWest (260°)3.5 mphPartly Cloudy
10:30 AM82.4 °F68.0 °F62 %29.98 in6.2 miVariable3.5 mphPartly Cloudy
11:00 AM84.0 °F69.0 °F52 %29.98 in9.0 miNorth (10°)6.9 mphScattered Clouds
11:00 AM84.2 °F68.0 °F58 %29.98 in6.2 miNorth (10°)6.9 mphPartly Cloudy
11:30 AM84.2 °F69.8 °F62 %29.95 in6.2 miNorth (350°)8.1 mphPartly Cloudy
12:00 PM82.4 °F69.8 °F66 %29.95 in6.2 miNNW (340°)5.8 mphPartly Cloudy
12:30 PM84.2 °F69.8 °F62 %29.92 in6.2 miWNW (300°)4.6 mphPartly Cloudy
1:00 PM82.4 °F69.8 °F66 %29.92 in6.2 miWNW (290°)9.2 mphPartly Cloudy
1:30 PM84.2 °F69.8 °F62 %29.92 in6.2 miWNW (290°)6.9 mphPartly Cloudy
2:00 PM84.0 °F70.0 °F55 %29.91 in12.0 miWest (280°)8.1 mphScattered Clouds
2:00 PM84.2 °F68.0 °F58 %29.89 in6.2 miWNW (290°)8.1 mphPartly Cloudy
2:30 PM84.2 °F68.0 °F58 %29.89 in6.2 miNNW (340°)5.8 mphPartly Cloudy
3:00 PM84.2 °F68.0 °F58 %29.89 in6.2 miNW (310°)4.6 mphPartly Cloudy
3:30 PM84.2 °F68.0 °F58 %29.89 in6.2 miNNW (340°)5.8 mphPartly Cloudy
4:00 PM82.4 °F68.0 °F62 %29.89 in6.2 miNNW (340°)4.6 mphPartly Cloudy
4:30 PM84.2 °F68.0 °F58 %29.89 in6.2 miNW (320°)3.5 mphPartly Cloudy
5:00 PM83.0 °F69.0 °F54 %29.91 in12.0 miWNW (290°)5.8 mphPartly Cloudy
5:00 PM82.4 °F69.8 °F66 %29.89 in6.2 miWNW (290°)5.8 mphPartly Cloudy
5:30 PM80.6 °F68.0 °F65 %29.92 in6.2 miWNW (300°)5.8 mphPartly Cloudy
6:00 PM78.8 °F69.8 °F74 %29.92 in6.2 miWNW (290°)10.4 mphPartly Cloudy
6:30 PM80.6 °F69.8 °F70 %29.92 in6.2 miWest (270°)10.4 mphPartly Cloudy
7:00 PM78.8 °F68.0 °F69 %29.95 in6.2 miWNW (290°)6.9 mphPartly Cloudy
7:30 PM78.8 °F68.0 °F69 %29.95 in6.2 miWNW (290°)6.9 mphMostly Cloudy
8:00 PM79.0 °F68.0 °F61 %29.96 in12.0 miNW (310°)6.9 mphMostly Cloudy
8:00 PM78.8 °F68.0 °F69 %29.95 in6.2 miNW (310°)6.9 mphMostly Cloudy
8:30 PM78.8 °F68.0 °F69 %29.95 in6.2 miNE (40°)4.6 mphMostly Cloudy
9:00 PM77.0 °F68.0 °F74 %29.98 in6.2 miVariable3.5 mphPartly Cloudy
9:30 PM77.0 °F68.0 °F74 %29.98 in6.2 miVariable2.3 mphPartly Cloudy
10:00 PM77.0 °F68.0 °F74 %29.98 in6.2 miENE (60°)4.6 mphPartly Cloudy
10:30 PM75.2 °F68.0 °F78 %29.98 in6.2 miEast (100°)2.3 mphPartly Cloudy
11:00 PM76.0 °F68.0 °F69 %29.99 in12.0 miSE (140°)1.2 mphScattered Clouds
11:00 PM75.2 °F68.0 °F78 %29.98 in6.2 miVariable1.2 mphPartly Cloudy
11:30 PM75.2 °F68.0 °F78 %29.98 in6.2 miEast (90°)3.5 mphPartly Cloudy
Hourly data recorded from NTAA, located miles away from Papeete, French Polynesia







STORIES FROM OUR PARTNERS